Location: La Ronge
(55.1000°N, 105.3000°W)
Time: 11:53:38
(UTC-06:00)

Daily predictions for brighter satellites

Satellite Brightness Start Highest point End
(mag) Time Altitude Azimuth Time Altitude Azimuth Time Altitude Azimuth
PAYLOAD A 4.2 17:12:40 10° SE 17:17:22 48° ENE 17:22:16 10° N
Cosmos 2218 Rocket 4.4 17:11:46 10° N 17:17:44 41° ENE 17:23:35 10° SE
ISS -0.8 17:20:14 10° S 17:21:45 13° SE 17:23:16 10° ESE
Cosmos 1484 Rocket 4.3 17:22:57 10° E 17:25:12 16° ENE 17:27:28 10° NNE
Cosmos 2181 Rocket 4.4 17:22:44 10° SSE 17:28:43 45° E 17:34:47 10° NNE
MTI 4.2 17:26:25 10° NNE 17:29:39 45° E 17:32:50 10° S
BREEZE M DEB (TANK) 3.3 17:27:29 10° SW 17:29:46 33° SSE 17:34:14 10° ESE
Okean 3 3.8 17:25:54 10° SSE 17:29:58 45° E 17:34:03 10° NNE
EO 1 Del DPAF 3.4 17:26:14 10° NNE 17:30:06 56° ESE 17:33:55 10° S
NOSS 3-4 (A) 4.0 17:23:50 10° NW 17:30:22 50° NNE 17:37:17 10° E
NOSS 3-4 (C) 4.0 17:23:57 10° NW 17:30:27 50° NNE 17:37:23 10° E
ASTEX 1 3.4 17:25:54 10° N 17:30:57 79° E 17:35:57 10° S
Cosmos 1606 2.9 17:29:08 10° SSW 17:33:04 77° WNW 17:37:01 10° N
Nadezhda 1 Rocket 4.0 17:27:27 10° S 17:33:34 88° E 17:39:47 10° NNE
Cosmos 2263 Rocket 2.3 17:28:02 10° SSW 17:33:41 88° NW 17:39:24 10° NNE
Timation 2 Rocket 4.4 17:27:12 10° NNW 17:33:44 49° NE 17:40:23 10° ESE
COSMOS 2487 3.5 17:32:27 10° N 17:35:33 26° NE 17:38:39 10° ESE
Cosmos 1818 4.0 17:31:50 10° WSW 17:37:14 56° NNW 17:42:39 10° NE
Cosmos 1674 Rocket 3.7 17:33:18 10° SSW 17:37:46 81° WNW 17:42:15 10° N
SPOT 3 Rocket 3.7 17:34:09 10° SE 17:39:11 54° ENE 17:44:14 10° N
GEOS 3 Rocket 3.7 17:34:30 10° ESE 17:39:29 54° NNE 17:44:30 10° NW
CZ-3B DEB 3.9 17:38:28 10° SSE 17:42:02 20° ESE 17:47:52 11° ENE
Cosmos 494 Rocket 4.0 17:37:32 10° NNW 17:42:47 70° ENE 17:48:02 10° SE
SMAP 3.2 17:40:27 10° SE 17:44:58 52° ENE 17:49:30 10° N
Cosmos 2341 Rocket 4.1 17:38:45 10° NNW 17:45:00 85° W 17:51:14 10° S
Ariane Rocket 3.8 17:40:22 10° S 17:45:21 57° WSW 17:50:22 10° NNW
ATLAS 2AS CENTAUR R/B 3.5 17:37:38 10° NW 17:45:46 71° SW 17:53:29 10° SSE
CSL-04 Rocket 4.2 17:40:20 10° S 17:45:48 68° WSW 17:51:23 10° NNW
Okean 1 Rocket 4.0 17:41:52 10° NNW 17:46:06 51° W 17:50:19 10° S
ERBS 2.4 17:44:18 10° W 17:47:42 63° N 17:50:28 15° ENE
APEX 4.2 17:43:28 10° SSW 17:49:30 62° ESE 17:53:53 12° NE
USA 32 4.5 17:44:43 10° SSE 17:49:33 39° E 17:54:24 10° NNE
Cosmos 1544 Rocket 3.6 17:45:24 10° N 17:49:49 58° ENE 17:54:14 10° SSE
Cosmos 1937 Rocket 4.4 17:47:47 10° SW 17:52:52 47° NW 17:57:55 10° NNE
COSMO-SKYMED 1 4.3 17:52:19 13° ENE 17:52:53 14° E 17:55:07 10° ESE
MOZ.5/SAFIR/RUBIN 5/SL-8 4.0 17:48:33 10° NNE 17:53:12 72° WNW 17:57:52 10° SSW
Cosmos 1536 3.6 17:52:27 10° NNW 17:56:28 57° W 18:00:28 10° S
Cosmos 1812 3.8 17:54:17 10° SE 17:57:28 25° E 17:59:51 14° NE
USA 161 4.2 17:55:37 10° NNW 17:57:28 17° WNW 17:59:21 10° WSW
Cosmos 1125 Rocket 3.5 17:52:38 10° SSW 17:57:58 80° ESE 18:03:19 10° NNE
Cosmos 1238 Rocket 3.5 17:55:41 10° SE 17:58:06 22° E 17:59:18 18° NE
Cosmos 1844 Rocket 3.1 17:53:29 10° S 17:58:44 43° ESE 18:03:24 13° NE
Cosmos 1975 Rocket 3.0 17:56:59 10° S 18:01:15 64° E 18:05:34 10° NNE
IDEFIX/ARIANE 42P 2.5 17:56:46 10° SSE 18:01:56 72° ENE 18:07:08 10° NNW
CZ-2C R/B 2.4 18:00:02 10° SSE 18:05:04 77° ENE 18:10:17 10° NNW
Thor Agena Rocket 4.0 18:02:42 10° NNE 18:07:38 42° E 18:12:36 10° S
SJ-7 4.4 18:03:30 10° SSE 18:07:43 69° ENE 18:11:59 10° N
SL-16 R/B 3.7 18:02:02 10° N 18:07:44 40° WNW 18:13:25 10° SW
Cosmos 864 Rocket 4.5 18:02:32 10° N 18:08:49 70° ENE 18:15:07 10° SSE
RESURS DK-1 4.4 18:10:13 10° NNW 18:12:17 13° NNE 18:12:59 13° NNE
CORIOLIS 4.1 18:07:51 10° SSE 18:13:16 81° ENE 18:18:41 10° NNW
COSMOS 2441 4.4 18:09:39 10° SE 18:14:26 56° ENE 18:19:15 10° N
Cosmos 1346 Rocket 4.2 18:12:27 10° SE 18:14:56 19° E 18:14:56 19° E
SL-27 R/B 4.0 18:11:46 10° NW 18:15:16 41° WSW 18:18:43 10° S
Cosmos 2251 Rocket 4.0 18:11:07 10° NNW 18:16:27 65° WSW 18:21:43 10° SSE
ALOS 3.9 18:17:33 16° NE 18:17:33 16° NE 18:19:34 10° NNE
Cosmos 1536 Rocket 4.2 18:13:54 10° SSE 18:17:59 36° E 18:21:16 15° NNE
Cosmos 1844 4.0 18:13:40 10° S 18:18:56 45° ESE 18:22:42 18° NE
CZ-4 R/B 4.3 18:15:22 10° SSE 18:19:30 73° ENE 18:23:41 10° NNW
ATLAS CENTAUR R/B 2.9 18:15:58 10° WNW 18:19:56 28° NNW 18:22:28 17° NNE
Cosmos 2344 4.3 18:12:26 10° W 18:20:31 60° NNW 18:28:40 18° ENE
Intercosmos 25 3.7 18:18:29 10° N 18:21:47 30° ENE 18:23:26 19° ESE
YAOGAN 1 2.7 18:22:06 10° SSE 18:26:26 78° WSW 18:30:48 10° NNW
BREEZE-M DEB (TANK) 3.7 18:23:18 10° WSW 18:31:38 61° S 18:34:26 21° ESE
Cosmos 2278 Rocket 2.7 18:29:38 10° S 18:34:50 39° ESE 18:37:29 25° ENE
SJ-6B 4.1 18:36:13 22° NNE 18:36:13 22° NNE 18:38:08 10° N
Genesis I 4.3 18:34:18 10° NW 18:38:06 45° SW 18:41:51 10° SSE
Cosmos 1455 Rocket 3.5 18:34:46 10° NNW 18:39:09 65° W 18:43:31 10° S
FENGYUN 3A 4.5 18:39:47 27° ENE 18:40:18 27° NE 18:44:45 10° N
Cosmos 1975 2.8 18:36:21 10° NNW 18:40:29 87° WSW 18:44:32 10° S
SKYMED 2 4.2 18:40:58 32° E 18:41:31 33° E 18:45:27 10° SSE
CZ-4 R/B 2.9 18:39:31 10° S 18:43:28 40° W 18:47:22 10° NNW
NOAA 12 4.2 18:40:26 10° SE 18:45:31 50° ENE 18:50:36 10° N
MSX 4.0 18:42:17 10° S 18:48:02 76° WSW 18:53:50 10° NNW
Cosmos 1743 2.8 18:46:29 10° N 18:50:20 54° ENE 18:54:09 10° SSE
Cosmos 1833 Rocket 2.6 18:46:42 10° NNW 18:52:24 85° NE 18:58:03 10° SE
Cosmos 2082 Rocket 2.2 18:47:24 10° NW 18:53:06 85° WSW 18:58:47 10° SSE
Cosmos 2297 Rocket 4.1 18:50:24 10° NW 18:53:55 16° N 18:56:09 13° NNE
Resurs 01 Rocket 2.9 18:57:23 24° NNE 18:57:23 24° NNE 18:59:41 10° N
Cosmos 1500 3.4 18:53:29 10° NNW 18:57:19 71° W 19:01:08 10° S
METEOR-M 4.2 18:52:22 10° SE 18:57:34 54° ENE 19:02:46 10° N
ISS -2.2 18:54:33 10° SW 18:57:34 33° SSE 18:57:41 33° SSE
Cosmos 2227 Rocket 4.0 18:55:18 10° NW 18:58:43 16° N 19:00:24 14° NNE
Cosmos 1484 Rocket 2.8 18:55:29 10° S 18:59:13 76° WSW 19:02:58 10° NNW
Cosmos 1809 Rocket 4.5 18:54:51 10° NNW 19:01:05 85° WSW 19:07:13 10° S
Cosmos 1934 Rocket 4.0 18:58:26 10° N 19:04:31 54° ENE 19:10:37 10° SSE
Cosmos 1535 Rocket 4.4 18:59:49 10° N 19:06:11 67° ENE 19:12:24 10° SSE
Cosmos 407 Rocket 3.6 19:03:35 10° NNW 19:08:35 49° NE 19:09:18 46° E
USA 234 3.4 19:06:44 34° E 19:09:38 61° SSE 19:16:06 10° SW
COSMOS 2487 3.9 19:07:49 10° NW 19:11:13 39° WSW 19:14:35 10° S
Meteor 1-13 Rocket 4.3 19:06:36 10° S 19:12:09 55° E 19:15:04 28° NNE
Spot 2 Rocket 3.6 19:13:47 48° E 19:14:11 49° ENE 19:19:06 10° N
Cosmos 676 Rocket 4.3 19:10:01 10° NNW 19:14:51 43° NE 19:14:51 43° NE
SL-24 DEB 4.4 19:12:27 10° N 19:17:14 73° W 19:21:56 10° SSW
GEOS 3 Rocket 4.3 19:12:37 10° SSE 19:17:37 52° SW 19:22:38 10° NW
Cosmos 2263 Rocket 3.7 19:13:31 10° W 19:18:23 29° NNW 19:21:49 17° NNE
Cosmos 2239 Rocket 4.4 19:15:22 10° N 19:21:39 83° ENE 19:27:50 10° SSE
NOSS 3-4 (A) 3.8 19:14:58 10° NW 19:21:50 81° SW 19:27:08 20° SE
NOSS 3-4 (C) 3.8 19:15:04 10° NW 19:21:57 81° SW 19:27:11 20° SE
ERBS 3.1 19:21:14 10° WNW 19:23:51 49° WNW 19:23:51 49° WNW
Cosmos 1606 Rocket 4.3 19:22:09 10° N 19:25:04 39° N 19:25:04 39° N
COSMO-SKYMED 1 2.4 19:29:32 80° NE 19:29:45 86° ESE 19:34:07 10° SSW
Meteor 2-9 Rocket 4.0 19:24:25 10° NNW 19:29:59 78° ENE 19:35:23 10° SSE
Cosmos 1821 Rocket 3.9 19:25:45 10° NNW 19:31:54 88° W 19:38:01 10° S
Cosmos 1812 4.0 19:29:33 10° SW 19:33:11 39° WNW 19:35:04 23° NNW
NOSS 3-3 (A) 4.0 19:28:15 10° SSW 19:34:31 66° SE 19:36:01 52° ENE
NOSS 3-3 (C) 4.0 19:28:22 10° SSW 19:34:37 66° SE 19:36:06 52° ENE
Cosmos 1238 Rocket 4.4 19:35:18 10° SW 19:37:53 25° WNW 19:38:32 23° NW
Okean 1 4.2 19:34:13 10° SSW 19:38:10 48° WNW 19:39:35 33° NNW
Cosmos 1605 Rocket 3.9 19:35:58 10° N 19:42:20 70° ENE 19:44:56 37° SSE
Cosmos 1844 Rocket 3.4 19:37:10 10° WSW 19:42:38 49° NW 19:45:04 30° N
Cosmos 1346 Rocket 3.8 19:47:31 10° SSW 19:50:31 43° WSW 19:50:31 43° WSW
ALOS 3.8 19:56:05 26° N 19:56:05 26° N 19:58:07 10° NNW
Cosmos 1190 Rocket 4.1 19:51:13 10° NNW 19:56:29 73° WSW 19:57:11 63° SSW
ATLAS CENTAUR R/B 3.5 19:56:31 10° NW 19:58:46 20° NNW 19:58:46 20° NNW
CZ-3A R/B 2.9 19:51:43 10° W 20:01:59 89° N 20:02:26 76° E
Cosmos 1844 4.5 19:57:46 10° WSW 20:03:08 47° NW 20:04:36 38° N
Nadezhda 3 Rocket 4.3 19:57:30 10° SSW 20:03:41 64° WNW 20:09:59 10° N
Cosmos 2297 3.8 20:00:01 10° SSW 20:04:44 63° SSW 20:04:44 63° SSW
CZ-3B DEB 3.2 20:08:27 10° WSW 20:14:02 77° SSE 20:16:19 57° E
Cosmos 2278 Rocket 2.7 20:13:18 10° SW 20:18:50 53° NW 20:19:21 51° NNW
FENGYUN 3A 4.1 20:21:17 55° NW 20:21:17 55° NW 20:25:34 10° NNW
Resurs 01 Rocket 3.9 20:34:57 19° NW 20:34:57 19° NW 20:36:23 10° NNW
Cosmos 2344 4.4 20:28:04 10° WNW 20:36:56 58° NNE 20:38:40 53° NE
Cosmos 2297 Rocket 4.3 20:35:58 10° NNW 20:37:57 17° N 20:37:57 17° N
Cosmos 2227 Rocket 4.3 20:40:25 10° NNW 20:42:13 17° N 20:42:13 17° N
USA 234 3.5 20:54:06 63° W 20:54:06 63° W 20:59:28 10° W
Cosmos 2263 Rocket 4.4 21:00:42 10° NW 21:03:30 16° NNW 21:03:30 16° NNW
